Time,TemperatureF,DewpointF,PressureIn,WindDirection,WindDirectionDegrees,WindSpeedMPH,WindSpeedGustMPH,Humidity,HourlyPrecipIn,Conditions,Clouds,dailyrainin,SoftwareType,DateUTC
2013-04-03 00:00:00,39.1,27.7,30.12,NW,323,6.5,7.4,63,0.00,,,0.00,VWS V13.01,2013-04-03 04:00:00,
2013-04-03 00:05:00,38.9,27.5,30.11,West,280,6.9,11.1,63,0.00,,,0.00,VWS V13.01,2013-04-03 04:05:00,
2013-04-03 00:10:00,39.1,27.8,30.11,NNW,333,3.8,11.1,64,0.00,,,0.00,VWS V13.01,2013-04-03 04:10:00,
2013-04-03 00:15:00,38.9,27.7,30.11,NW,319,6.6,11.4,64,0.00,,,0.00,VWS V13.01,2013-04-03 04:15:00,
2013-04-03 00:20:00,39.0,27.8,30.12,NW,318,8.6,11.4,64,0.00,,,0.00,VWS V13.01,2013-04-03 04:20:00,
2013-04-03 00:25:00,38.9,27.9,30.12,NW,309,9.5,11.4,64,0.00,,,0.00,VWS V13.01,2013-04-03 04:25:00,
2013-04-03 00:30:00,38.7,27.8,30.12,WNW,294,5.5,11.4,65,0.00,,,0.00,VWS V13.01,2013-04-03 04:30:00,
2013-04-03 00:35:00,38.8,28.0,30.12,NNW,330,2.2,11.4,65,0.00,,,0.00,VWS V13.01,2013-04-03 04:35:00,
2013-04-03 00:40:00,39.0,28.2,30.12,NW,316,3.0,11.4,65,0.00,,,0.00,VWS V13.01,2013-04-03 04:40:00,
2013-04-03 00:45:00,38.7,28.0,30.12,NW,315,0.0,11.4,65,0.00,,,0.00,VWS V13.01,2013-04-03 04:45:00,
2013-04-03 00:50:00,38.6,27.9,30.12,NW,305,2.7,11.4,65,0.00,,,0.00,VWS V13.01,2013-04-03 04:50:00,
2013-04-03 00:55:00,38.7,28.1,30.12,WNW,294,1.9,11.4,65,0.00,,,0.00,VWS V13.01,2013-04-03 04:55:00,
2013-04-03 01:00:00,38.5,28.1,30.13,WNW,301,7.5,11.4,66,0.00,,,0.00,VWS V13.01,2013-04-03 05:00:00,
2013-04-03 01:05:00,38.5,28.1,30.13,NW,316,6.2,11.4,66,0.00,,,0.00,VWS V13.01,2013-04-03 05:05:00,
2013-04-03 01:10:00,38.3,28.0,30.13,NNW,339,3.9,11.4,66,0.00,,,0.00,VWS V13.01,2013-04-03 05:10:00,
2013-04-03 01:15:00,38.4,28.1,30.13,NW,309,4.3,11.4,66,0.00,,,0.00,VWS V13.01,2013-04-03 05:15:00,
2013-04-03 01:20:00,38.2,27.9,30.13,NW,312,3.7,11.4,66,0.00,,,0.00,VWS V13.01,2013-04-03 05:20:00,
2013-04-03 01:25:00,38.1,27.9,30.13,North,349,3.6,11.4,66,0.00,,,0.00,VWS V13.01,2013-04-03 05:25:00,
2013-04-03 01:30:00,38.0,27.8,30.13,NW,322,2.2,11.4,66,0.00,,,0.00,VWS V13.01,2013-04-03 05:30:00,
2013-04-03 01:35:00,38.0,27.9,30.13,NNW,339,5.0,11.4,67,0.00,,,0.00,VWS V13.01,2013-04-03 05:35:00,
2013-04-03 01:40:00,37.9,27.9,30.13,WNW,298,5.4,11.4,67,0.00,,,0.00,VWS V13.01,2013-04-03 05:40:00,
2013-04-03 01:45:00,37.8,27.8,30.13,NNW,335,3.4,11.4,67,0.00,,,0.00,VWS V13.01,2013-04-03 05:45:00,
2013-04-03 01:50:00,37.7,27.9,30.13,WNW,292,4.2,11.4,67,0.00,,,0.00,VWS V13.01,2013-04-03 05:50:00,
2013-04-03 01:55:00,37.6,27.8,30.13,NW,316,4.3,11.4,67,0.00,,,0.00,VWS V13.01,2013-04-03 05:55:00,
2013-04-03 02:00:00,37.6,27.9,30.13,NW,311,0.0,11.4,68,0.00,,,0.00,VWS V13.01,2013-04-03 06:00:00,
2013-04-03 02:05:00,37.2,27.6,30.13,NW,326,3.7,11.4,68,0.00,,,0.00,VWS V13.01,2013-04-03 06:05:00,
2013-04-03 02:10:00,37.2,27.7,30.13,NW,314,0.0,11.4,68,0.00,,,0.00,VWS V13.01,2013-04-03 06:10:00,
2013-04-03 02:15:00,37.1,27.7,30.13,South,180,0.0,11.4,68,0.00,,,0.00,VWS V13.01,2013-04-03 06:15:00,
2013-04-03 02:20:00,36.8,27.5,30.13,NNW,339,0.0,11.4,69,0.00,,,0.00,VWS V13.01,2013-04-03 06:20:00,
2013-04-03 02:25:00,36.9,27.6,30.13,NNW,339,0.0,11.4,69,0.00,,,0.00,VWS V13.01,2013-04-03 06:25:00,
2013-04-03 02:30:00,36.6,27.4,30.13,NNW,333,0.0,11.4,69,0.00,,,0.00,VWS V13.01,2013-04-03 06:30:00,
2013-04-03 02:35:00,36.7,27.7,30.13,NW,321,0.0,11.4,70,0.00,,,0.00,VWS V13.01,2013-04-03 06:35:00,
2013-04-03 02:40:00,36.4,27.5,30.13,NW,321,0.0,11.4,70,0.00,,,0.00,VWS V13.01,2013-04-03 06:40:00,
2013-04-03 02:45:00,36.3,27.5,30.13,NW,321,0.0,11.4,70,0.00,,,0.00,VWS V13.01,2013-04-03 06:45:00,
2013-04-03 02:50:00,36.1,27.4,30.13,NW,321,0.0,11.4,70,0.00,,,0.00,VWS V13.01,2013-04-03 06:50:00,
2013-04-03 02:55:00,35.8,27.2,30.13,WNW,288,0.0,11.4,71,0.00,,,0.00,VWS V13.01,2013-04-03 06:55:00,
2013-04-03 03:00:00,35.7,27.2,30.13,WNW,288,0.0,11.4,71,0.00,,,0.00,VWS V13.01,2013-04-03 07:00:00,
2013-04-03 03:05:00,35.6,27.2,30.13,WNW,288,0.0,11.4,71,0.00,,,0.00,VWS V13.01,2013-04-03 07:05:00,
2013-04-03 03:10:00,35.5,27.0,30.13,North,349,0.0,11.4,71,0.00,,,0.00,VWS V13.01,2013-04-03 07:10:00,
2013-04-03 03:15:00,35.5,27.0,30.13,North,349,0.0,11.4,71,0.00,,,0.00,VWS V13.01,2013-04-03 07:15:00,
2013-04-03 03:20:00,35.2,26.7,30.13,WNW,298,3.7,11.4,71,0.00,,,0.00,VWS V13.01,2013-04-03 07:20:00,
2013-04-03 03:25:00,35.2,26.5,30.13,WNW,297,0.0,11.4,70,0.00,,,0.00,VWS V13.01,2013-04-03 07:25:00,
2013-04-03 03:30:00,35.2,26.2,30.13,NNW,338,1.4,11.4,70,0.00,,,0.00,VWS V13.01,2013-04-03 07:30:00,
2013-04-03 03:35:00,35.3,26.2,30.13,NW,305,1.1,11.4,69,0.00,,,0.00,VWS V13.01,2013-04-03 07:35:00,
2013-04-03 03:40:00,35.3,26.1,30.13,NNW,328,0.0,11.4,69,0.00,,,0.00,VWS V13.01,2013-04-03 07:40:00,
2013-04-03 03:45:00,35.2,26.0,30.14,NW,307,0.0,11.4,69,0.00,,,0.00,VWS V13.01,2013-04-03 07:45:00,
2013-04-03 03:50:00,35.2,26.0,30.14,WNW,294,0.0,11.4,69,0.00,,,0.00,VWS V13.01,2013-04-03 07:50:00,
2013-04-03 03:55:00,35.3,26.0,30.14,WNW,294,0.0,11.4,69,0.00,,,0.00,VWS V13.01,2013-04-03 07:55:00,
2013-04-03 04:00:00,35.0,25.7,30.14,WNW,294,0.0,11.4,68,0.00,,,0.00,VWS V13.01,2013-04-03 08:00:00,
2013-04-03 04:05:00,35.0,25.7,30.14,WNW,294,0.0,11.4,69,0.00,,,0.00,VWS V13.01,2013-04-03 08:05:00,
2013-04-03 04:10:00,34.9,25.6,30.14,West,264,1.8,11.4,68,0.00,,,0.00,VWS V13.01,2013-04-03 08:10:00,
2013-04-03 04:15:00,34.8,25.5,30.14,NW,326,2.3,11.4,68,0.00,,,0.00,VWS V13.01,2013-04-03 08:15:00,
2013-04-03 04:20:00,34.6,25.3,30.14,NW,307,0.0,11.4,68,0.00,,,0.00,VWS V13.01,2013-04-03 08:20:00,
2013-04-03 04:25:00,34.6,25.4,30.14,NNW,332,0.0,11.4,69,0.00,,,0.00,VWS V13.01,2013-04-03 08:25:00,
2013-04-03 04:30:00,34.6,25.4,30.14,NW,307,4.0,11.4,69,0.00,,,0.00,VWS V13.01,2013-04-03 08:30:00,
2013-04-03 04:35:00,34.3,25.2,30.15,NW,319,0.0,11.4,69,0.00,,,0.00,VWS V13.01,2013-04-03 08:35:00,
2013-04-03 04:40:00,34.3,25.2,30.15,NW,309,0.0,11.4,69,0.00,,,0.00,VWS V13.01,2013-04-03 08:40:00,
2013-04-03 04:45:00,34.3,25.3,30.15,WNW,283,1.6,11.4,69,0.00,,,0.00,VWS V13.01,2013-04-03 08:45:00,
2013-04-03 04:50:00,34.2,25.4,30.15,NW,314,0.0,11.4,70,0.00,,,0.00,VWS V13.01,2013-04-03 08:50:00,
2013-04-03 04:55:00,34.1,25.3,30.15,NNW,330,0.0,11.4,70,0.00,,,0.00,VWS V13.01,2013-04-03 08:55:00,
2013-04-03 05:00:00,34.0,25.4,30.15,NW,309,0.0,11.4,70,0.00,,,0.00,VWS V13.01,2013-04-03 09:00:00,
2013-04-03 05:05:00,33.9,25.3,30.15,NW,305,4.9,11.4,70,0.00,,,0.00,VWS V13.01,2013-04-03 09:05:00,
2013-04-03 05:10:00,33.9,25.3,30.15,WNW,283,0.0,11.4,70,0.00,,,0.00,VWS V13.01,2013-04-03 09:10:00,
2013-04-03 05:15:00,33.8,25.2,30.16,WNW,295,3.9,11.4,70,0.00,,,0.00,VWS V13.01,2013-04-03 09:15:00,
2013-04-03 05:20:00,33.9,25.3,30.16,NW,304,2.8,11.4,70,0.00,,,0.00,VWS V13.01,2013-04-03 09:20:00,
2013-04-03 05:25:00,34.1,25.7,30.16,NW,315,5.2,11.4,71,0.00,,,0.00,VWS V13.01,2013-04-03 09:25:00,
2013-04-03 05:30:00,33.9,25.3,30.16,NW,325,2.7,12.1,70,0.00,,,0.00,VWS V13.01,2013-04-03 09:30:00,
2013-04-03 05:35:00,34.0,25.4,30.16,WNW,301,5.2,12.1,70,0.00,,,0.00,VWS V13.01,2013-04-03 09:35:00,
2013-04-03 05:40:00,34.0,25.4,30.16,NW,311,5.0,12.1,70,0.00,,,0.00,VWS V13.01,2013-04-03 09:40:00,
2013-04-03 05:45:00,34.1,25.5,30.17,NNW,328,4.3,12.1,70,0.00,,,0.00,VWS V13.01,2013-04-03 09:45:00,
2013-04-03 05:50:00,33.8,25.3,30.17,NW,321,0.0,12.1,71,0.00,,,0.00,VWS V13.01,2013-04-03 09:50:00,
2013-04-03 05:55:00,33.9,25.4,30.17,West,281,0.0,12.1,71,0.00,,,0.00,VWS V13.01,2013-04-03 09:55:00,
2013-04-03 06:00:00,33.7,25.3,30.17,WNW,297,4.1,12.1,71,0.00,,,0.00,VWS V13.01,2013-04-03 10:00:00,
2013-04-03 06:05:00,33.9,25.4,30.17,NW,323,4.7,12.1,71,0.00,,,0.00,VWS V13.01,2013-04-03 10:05:00,
2013-04-03 06:10:00,33.9,25.4,30.17,WNW,284,1.6,12.1,71,0.00,,,0.00,VWS V13.01,2013-04-03 10:10:00,
2013-04-03 06:15:00,34.0,25.5,30.18,WNW,290,1.2,12.1,71,0.00,,,0.00,VWS V13.01,2013-04-03 10:15:00,
2013-04-03 06:20:00,34.0,25.4,30.18,NNW,332,2.7,12.1,70,0.00,,,0.00,VWS V13.01,2013-04-03 10:20:00,
2013-04-03 06:25:00,34.1,25.6,30.18,NNW,328,3.4,12.1,71,0.00,,,0.00,VWS V13.01,2013-04-03 10:25:00,
2013-04-03 06:30:00,33.9,25.4,30.18,NW,312,3.8,12.1,71,0.00,,,0.00,VWS V13.01,2013-04-03 10:30:00,
2013-04-03 06:35:00,34.0,25.5,30.18,NW,304,0.0,12.1,71,0.00,,,0.00,VWS V13.01,2013-04-03 10:35:00,
2013-04-03 06:40:00,34.0,25.5,30.18,WNW,295,1.5,12.1,71,0.00,,,0.00,VWS V13.01,2013-04-03 10:40:00,
2013-04-03 06:45:00,34.1,25.7,30.18,WNW,287,0.0,12.1,71,0.00,,,0.00,VWS V13.01,2013-04-03 10:45:00,
2013-04-03 06:50:00,34.0,25.5,30.18,WNW,290,2.9,12.1,71,0.00,,,0.00,VWS V13.01,2013-04-03 10:50:00,
2013-04-03 06:55:00,34.1,25.6,30.18,WNW,300,4.3,12.1,71,0.00,,,0.00,VWS V13.01,2013-04-03 10:55:00,
2013-04-03 07:00:00,34.3,25.8,30.19,WNW,302,7.2,12.1,71,0.00,,,0.00,VWS V13.01,2013-04-03 11:00:00,
2013-04-03 07:05:00,34.4,25.9,30.19,NW,322,6.1,12.1,71,0.00,,,0.00,VWS V13.01,2013-04-03 11:05:00,
2013-04-03 07:10:00,34.4,25.9,30.19,WNW,298,0.9,12.1,71,0.00,,,0.00,VWS V13.01,2013-04-03 11:10:00,
2013-04-03 07:15:00,34.8,26.1,30.19,NW,304,3.3,12.1,70,0.00,,,0.00,VWS V13.01,2013-04-03 11:15:00,
2013-04-03 07:20:00,35.1,26.3,30.20,NNW,329,1.6,12.1,70,0.00,,,0.00,VWS V13.01,2013-04-03 11:20:00,
2013-04-03 07:25:00,35.6,26.5,30.20,West,281,1.2,12.1,69,0.00,,,0.00,VWS V13.01,2013-04-03 11:25:00,
2013-04-03 07:30:00,36.5,27.1,30.20,WNW,287,6.7,12.1,68,0.00,,,0.00,VWS V13.01,2013-04-03 11:30:00,
2013-04-03 07:35:00,36.9,27.3,30.21,NW,316,0.0,12.1,68,0.00,,,0.00,VWS V13.01,2013-04-03 11:35:00,
2013-04-03 07:40:00,37.5,27.7,30.20,WNW,300,2.2,12.1,67,0.00,,,0.00,VWS V13.01,2013-04-03 11:40:00,
2013-04-03 07:45:00,37.9,27.8,30.21,NNW,332,0.0,12.1,67,0.00,,,0.00,VWS V13.01,2013-04-03 11:45:00,
2013-04-03 07:50:00,38.3,28.0,30.21,WNW,300,6.7,12.1,66,0.00,,,0.00,VWS V13.01,2013-04-03 11:50:00,
2013-04-03 07:55:00,38.6,28.1,30.21,WNW,288,2.6,12.1,66,0.00,,,0.00,VWS V13.01,2013-04-03 11:55:00,
2013-04-03 08:00:00,39.0,28.3,30.21,WNW,288,4.2,12.1,65,0.00,,,0.00,VWS V13.01,2013-04-03 12:00:00,
2013-04-03 08:05:00,39.5,28.7,30.21,NW,323,9.4,12.1,65,0.00,,,0.00,VWS V13.01,2013-04-03 12:05:00,
2013-04-03 08:10:00,39.8,28.7,30.21,NW,312,7.6,12.1,64,0.00,,,0.00,VWS V13.01,2013-04-03 12:10:00,
2013-04-03 08:15:00,40.2,29.0,30.21,NW,319,3.9,12.1,64,0.00,,,0.00,VWS V13.01,2013-04-03 12:15:00,
2013-04-03 08:20:00,40.6,29.3,30.21,North,350,4.5,12.1,64,0.00,,,0.00,VWS V13.01,2013-04-03 12:20:00,
2013-04-03 08:25:00,40.9,29.5,30.21,WNW,283,3.2,12.1,64,0.00,,,0.00,VWS V13.01,2013-04-03 12:25:00,
2013-04-03 08:30:00,40.9,29.6,30.22,NW,315,12.9,13.4,64,0.00,,,0.00,VWS V13.01,2013-04-03 12:30:00,
2013-04-03 08:35:00,41.1,29.5,30.22,NNW,332,2.2,13.4,63,0.00,,,0.00,VWS V13.01,2013-04-03 12:35:00,
2013-04-03 08:40:00,41.1,29.6,30.21,NW,311,8.9,13.4,63,0.00,,,0.00,VWS V13.01,2013-04-03 12:40:00,
2013-04-03 08:45:00,41.2,29.4,30.21,NW,315,6.5,13.4,62,0.00,,,0.00,VWS V13.01,2013-04-03 12:45:00,
2013-04-03 08:50:00,41.4,29.3,30.21,NW,321,14.9,16.3,62,0.00,,,0.00,VWS V13.01,2013-04-03 12:50:00,
2013-04-03 08:55:00,41.1,29.2,30.21,NNW,332,7.8,17.6,62,0.00,,,0.00,VWS V13.01,2013-04-03 12:55:00,
2013-04-03 09:00:00,41.4,29.6,30.20,NNW,330,8.8,17.6,63,0.00,,,0.00,VWS V13.01,2013-04-03 13:00:00,
2013-04-03 09:05:00,41.4,29.1,30.21,NW,319,14.7,17.6,61,0.00,,,0.00,VWS V13.01,2013-04-03 13:05:00,
2013-04-03 09:10:00,41.3,29.0,30.20,NW,307,10.7,19.9,61,0.00,,,0.00,VWS V13.01,2013-04-03 13:10:00,
2013-04-03 09:15:00,41.2,28.9,30.20,NW,315,9.0,19.9,61,0.00,,,0.00,VWS V13.01,2013-04-03 13:15:00,
2013-04-03 09:20:00,41.8,29.2,30.20,North,8,10.6,19.9,61,0.00,,,0.00,VWS V13.01,2013-04-03 13:20:00,
2013-04-03 09:25:00,42.1,29.3,30.20,North,359,5.2,19.9,60,0.00,,,0.00,VWS V13.01,2013-04-03 13:25:00,
2013-04-03 09:30:00,42.5,29.5,30.20,North,7,9.3,19.9,60,0.00,,,0.00,VWS V13.01,2013-04-03 13:30:00,
2013-04-03 09:35:00,42.8,29.5,30.20,North,359,4.5,19.9,59,0.00,,,0.00,VWS V13.01,2013-04-03 13:35:00,
2013-04-03 09:40:00,43.5,30.1,30.20,WNW,285,8.9,19.9,59,0.00,,,0.00,VWS V13.01,2013-04-03 13:40:00,
2013-04-03 09:45:00,43.3,29.7,30.20,NNW,330,11.4,20.4,58,0.00,,,0.00,VWS V13.01,2013-04-03 13:45:00,
2013-04-03 09:50:00,43.5,30.0,30.19,NNW,333,5.3,20.4,59,0.00,,,0.00,VWS V13.01,2013-04-03 13:50:00,
2013-04-03 09:55:00,44.4,30.4,30.19,NW,316,4.5,20.4,58,0.00,,,0.00,VWS V13.01,2013-04-03 13:55:00,
2013-04-03 10:00:00,44.9,30.9,30.19,WNW,285,5.2,20.4,58,0.00,,,0.00,VWS V13.01,2013-04-03 14:00:00,
2013-04-03 10:05:00,44.6,30.2,30.19,North,7,6.7,20.4,57,0.00,,,0.00,VWS V13.01,2013-04-03 14:05:00,
2013-04-03 10:10:00,44.5,30.0,30.20,NNE,25,9.6,20.4,56,0.00,,,0.00,VWS V13.01,2013-04-03 14:10:00,
2013-04-03 10:15:00,44.6,30.3,30.20,NNW,333,7.9,20.4,57,0.00,,,0.00,VWS V13.01,2013-04-03 14:15:00,
2013-04-03 10:20:00,44.6,30.3,30.19,NE,45,6.6,20.4,57,0.00,,,0.00,VWS V13.01,2013-04-03 14:20:00,
2013-04-03 10:25:00,44.6,30.2,30.19,NW,311,12.8,20.4,57,0.00,,,0.00,VWS V13.01,2013-04-03 14:25:00,
2013-04-03 10:30:00,44.7,30.5,30.19,NNW,343,7.6,20.4,57,0.00,,,0.00,VWS V13.01,2013-04-03 14:30:00,
2013-04-03 10:35:00,45.2,30.6,30.19,WNW,287,4.6,20.4,56,0.00,,,0.00,VWS V13.01,2013-04-03 14:35:00,
2013-04-03 10:40:00,45.2,30.9,30.20,North,11,9.8,20.4,57,0.00,,,0.00,VWS V13.01,2013-04-03 14:40:00,
2013-04-03 10:45:00,45.6,31.0,30.20,NNW,333,3.2,20.4,56,0.00,,,0.00,VWS V13.01,2013-04-03 14:45:00,
2013-04-03 10:50:00,45.7,31.0,30.20,NNW,336,13.5,20.4,56,0.00,,,0.00,VWS V13.01,2013-04-03 14:50:00,
2013-04-03 10:55:00,45.7,31.0,30.20,NNW,335,9.8,20.4,56,0.00,,,0.00,VWS V13.01,2013-04-03 14:55:00,
2013-04-03 10:59:00,45.8,31.3,30.20,NW,323,7.5,20.4,57,0.00,,,0.00,VWS V13.01,2013-04-03 14:59:00,
2013-04-03 11:04:00,45.9,31.3,30.20,NW,319,11.4,20.4,56,0.00,,,0.00,VWS V13.01,2013-04-03 15:04:00,
2013-04-03 11:09:00,45.8,30.9,30.20,WNW,284,6.6,20.4,56,0.00,,,0.00,VWS V13.01,2013-04-03 15:09:00,
2013-04-03 11:14:00,45.4,30.1,30.20,WNW,285,5.3,20.4,55,0.00,,,0.00,VWS V13.01,2013-04-03 15:14:00,
2013-04-03 11:19:00,45.3,30.9,30.20,NW,319,4.0,20.4,57,0.00,,,0.00,VWS V13.01,2013-04-03 15:19:00,
2013-04-03 11:25:00,45.6,31.2,30.20,NW,318,2.9,20.4,57,0.00,,,0.00,VWS V13.01,2013-04-03 15:25:00,
2013-04-03 11:30:00,45.9,31.0,30.20,WNW,283,9.4,20.4,56,0.00,,,0.00,VWS V13.01,2013-04-03 15:30:00,
2013-04-03 11:35:00,46.1,31.1,30.20,West,271,1.7,20.4,56,0.00,,,0.00,VWS V13.01,2013-04-03 15:35:00,
2013-04-03 11:40:00,46.8,31.4,30.20,NW,309,8.5,20.4,55,0.00,,,0.00,VWS V13.01,2013-04-03 15:40:00,
2013-04-03 11:45:00,46.5,31.1,30.20,NW,315,9.6,20.4,55,0.00,,,0.00,VWS V13.01,2013-04-03 15:45:00,
2013-04-03 11:50:00,46.8,31.5,30.20,North,353,8.4,20.4,55,0.00,,,0.00,VWS V13.01,2013-04-03 15:50:00,
2013-04-03 11:55:00,46.9,31.6,30.20,WNW,302,9.5,20.4,55,0.00,,,0.00,VWS V13.01,2013-04-03 15:55:00,
2013-04-03 12:00:00,46.9,32.0,30.20,WNW,295,5.8,20.4,56,0.00,,,0.00,VWS V13.01,2013-04-03 16:00:00,
2013-04-03 12:05:00,47.0,31.6,30.20,NW,307,13.0,20.4,55,0.00,,,0.00,VWS V13.01,2013-04-03 16:05:00,
2013-04-03 12:10:00,46.8,31.8,30.20,WNW,297,8.9,20.4,56,0.00,,,0.00,VWS V13.01,2013-04-03 16:10:00,
2013-04-03 12:15:00,46.7,31.6,30.19,NW,305,11.3,20.4,55,0.00,,,0.00,VWS V13.01,2013-04-03 16:15:00,
2013-04-03 12:20:00,46.8,32.1,30.19,North,359,5.8,20.4,56,0.00,,,0.00,VWS V13.01,2013-04-03 16:20:00,
2013-04-03 12:25:00,47.2,32.1,30.19,WNW,291,9.2,20.4,56,0.00,,,0.00,VWS V13.01,2013-04-03 16:25:00,
2013-04-03 12:30:00,47.4,31.7,30.19,NW,312,5.5,20.4,54,0.00,,,0.00,VWS V13.01,2013-04-03 16:30:00,
2013-04-03 12:35:00,47.4,32.0,30.19,WNW,297,14.0,20.4,55,0.00,,,0.00,VWS V13.01,2013-04-03 16:35:00,
2013-04-03 12:40:00,47.1,32.4,30.18,WNW,295,8.6,20.4,56,0.00,,,0.00,VWS V13.01,2013-04-03 16:40:00,
2013-04-03 12:45:00,46.9,31.3,30.18,North,359,4.7,20.4,54,0.00,,,0.00,VWS V13.01,2013-04-03 16:45:00,
2013-04-03 12:50:00,47.2,31.9,30.18,WNW,300,5.0,20.4,55,0.00,,,0.00,VWS V13.01,2013-04-03 16:50:00,
2013-04-03 12:55:00,47.5,31.8,30.17,WNW,302,7.5,20.4,54,0.00,,,0.00,VWS V13.01,2013-04-03 16:55:00,
2013-04-03 13:00:00,47.4,31.9,30.17,NNW,330,7.9,20.4,55,0.00,,,0.00,VWS V13.01,2013-04-03 17:00:00,
2013-04-03 13:05:00,47.2,31.9,30.17,North,3,2.7,20.4,55,0.00,,,0.00,VWS V13.01,2013-04-03 17:05:00,
2013-04-03 13:10:00,47.6,32.2,30.18,NW,305,10.3,20.4,55,0.00,,,0.00,VWS V13.01,2013-04-03 17:10:00,
2013-04-03 13:15:00,47.5,31.9,30.17,NW,311,4.7,20.4,54,0.00,,,0.00,VWS V13.01,2013-04-03 17:15:00,
2013-04-03 13:20:00,47.7,32.7,30.17,West,281,17.6,20.4,56,0.00,,,0.00,VWS V13.01,2013-04-03 17:20:00,
2013-04-03 13:25:00,47.7,32.2,30.17,NW,321,12.6,20.4,55,0.00,,,0.00,VWS V13.01,2013-04-03 17:25:00,
2013-04-03 13:30:00,47.6,32.1,30.17,NW,321,8.7,20.4,55,0.00,,,0.00,VWS V13.01,2013-04-03 17:30:00,
2013-04-03 13:35:00,48.0,32.2,30.17,NNW,328,6.9,20.4,54,0.00,,,0.00,VWS V13.01,2013-04-03 17:35:00,
2013-04-03 13:40:00,48.4,32.2,30.16,NNW,345,6.5,20.4,53,0.00,,,0.00,VWS V13.01,2013-04-03 17:40:00,
2013-04-03 13:45:00,48.4,32.3,30.16,NNW,335,9.4,20.4,54,0.00,,,0.00,VWS V13.01,2013-04-03 17:45:00,
2013-04-03 13:50:00,48.5,32.2,30.16,WNW,301,4.5,20.9,53,0.00,,,0.00,VWS V13.01,2013-04-03 17:50:00,
2013-04-03 13:55:00,48.6,31.9,30.16,NW,304,7.5,20.9,52,0.00,,,0.00,VWS V13.01,2013-04-03 17:55:00,
2013-04-03 14:00:00,48.1,31.5,30.15,NNW,346,7.9,20.9,52,0.00,,,0.00,VWS V13.01,2013-04-03 18:00:00,
2013-04-03 14:05:00,48.3,31.8,30.16,NNW,332,8.4,20.9,52,0.00,,,0.00,VWS V13.01,2013-04-03 18:05:00,
2013-04-03 14:10:00,48.2,31.8,30.15,WNW,295,7.0,20.9,53,0.00,,,0.00,VWS V13.01,2013-04-03 18:10:00,
2013-04-03 14:15:00,48.5,32.0,30.15,NNW,345,5.0,21.3,53,0.00,,,0.00,VWS V13.01,2013-04-03 18:15:00,
2013-04-03 14:20:00,48.6,32.0,30.15,NNW,332,8.7,21.3,52,0.00,,,0.00,VWS V13.01,2013-04-03 18:20:00,
2013-04-03 14:25:00,48.8,32.0,30.15,North,357,9.5,21.3,52,0.00,,,0.00,VWS V13.01,2013-04-03 18:25:00,
2013-04-03 14:30:00,49.0,31.8,30.15,WNW,295,13.9,21.3,51,0.00,,,0.00,VWS V13.01,2013-04-03 18:30:00,
2013-04-03 14:35:00,48.9,31.6,30.15,NW,314,5.1,21.3,51,0.00,,,0.00,VWS V13.01,2013-04-03 18:35:00,
2013-04-03 14:40:00,49.2,32.0,30.15,NNW,330,11.1,21.3,51,0.00,,,0.00,VWS V13.01,2013-04-03 18:40:00,
2013-04-03 14:45:00,49.2,31.8,30.15,NNW,330,8.3,21.3,51,0.00,,,0.00,VWS V13.01,2013-04-03 18:45:00,
2013-04-03 14:50:00,48.8,31.6,30.14,North,352,9.3,21.3,51,0.00,,,0.00,VWS V13.01,2013-04-03 18:50:00,
2013-04-03 14:55:00,49.1,31.5,30.14,NNW,333,3.3,21.3,50,0.00,,,0.00,VWS V13.01,2013-04-03 18:55:00,
2013-04-03 15:00:00,49.3,32.0,30.14,NNW,340,6.6,21.3,51,0.00,,,0.00,VWS V13.01,2013-04-03 19:00:00,
2013-04-03 15:06:00,49.3,31.9,30.14,NW,305,11.0,21.3,51,0.00,,,0.00,VWS V13.01,2013-04-03 19:06:00,
2013-04-03 15:11:00,49.5,32.1,30.15,NNE,21,4.8,21.3,51,0.00,,,0.00,VWS V13.01,2013-04-03 19:11:00,
2013-04-03 15:16:00,49.4,31.8,30.14,NW,308,9.9,21.3,50,0.00,,,0.00,VWS V13.01,2013-04-03 19:16:00,
2013-04-03 15:21:00,49.5,31.9,30.15,NW,315,8.6,21.3,50,0.00,,,0.00,VWS V13.01,2013-04-03 19:21:00,
2013-04-03 15:27:00,49.3,32.0,30.14,North,359,3.9,21.3,51,0.00,,,0.00,VWS V13.01,2013-04-03 19:27:00,
2013-04-03 15:32:00,49.4,32.0,30.15,North,7,6.5,21.3,51,0.00,,,0.00,VWS V13.01,2013-04-03 19:32:00,
2013-04-03 15:37:00,49.1,31.5,30.14,NNW,328,5.2,21.3,50,0.00,,,0.00,VWS V13.01,2013-04-03 19:37:00,
2013-04-03 15:42:00,49.4,31.9,30.15,NNW,335,6.6,21.3,51,0.00,,,0.00,VWS V13.01,2013-04-03 19:42:00,
2013-04-03 15:47:00,49.8,31.7,30.15,NW,315,12.0,21.3,50,0.00,,,0.00,VWS V13.01,2013-04-03 19:47:00,
2013-04-03 15:52:00,49.6,31.8,30.15,NW,307,11.4,21.3,50,0.00,,,0.00,VWS V13.01,2013-04-03 19:52:00,
2013-04-03 15:57:00,49.3,32.2,30.15,NW,326,11.1,21.3,51,0.00,,,0.00,VWS V13.01,2013-04-03 19:57:00,
2013-04-03 16:02:00,50.1,33.3,30.15,NW,304,6.0,21.3,52,0.00,,,0.00,VWS V13.01,2013-04-03 20:02:00,
2013-04-03 16:07:00,50.2,33.3,30.15,North,359,3.6,21.3,52,0.00,,,0.00,VWS V13.01,2013-04-03 20:07:00,
2013-04-03 16:12:00,50.1,33.1,30.15,NNW,342,11.2,21.3,52,0.00,,,0.00,VWS V13.01,2013-04-03 20:12:00,
2013-04-03 16:17:00,50.3,33.1,30.15,North,10,5.7,21.3,52,0.00,,,0.00,VWS V13.01,2013-04-03 20:17:00,
2013-04-03 16:22:00,50.4,32.7,30.15,WNW,300,14.0,21.3,50,0.00,,,0.00,VWS V13.01,2013-04-03 20:22:00,
2013-04-03 16:27:00,50.7,33.4,30.15,WNW,292,9.5,21.4,51,0.00,,,0.00,VWS V13.01,2013-04-03 20:27:00,
2013-04-03 16:32:00,50.6,32.7,30.15,WNW,298,6.5,21.4,50,0.00,,,0.00,VWS V13.01,2013-04-03 20:32:00,
2013-04-03 16:37:00,50.5,33.0,30.15,NW,325,12.9,21.4,51,0.00,,,0.00,VWS V13.01,2013-04-03 20:37:00,
2013-04-03 16:42:00,50.4,32.3,30.15,North,349,8.3,21.4,50,0.00,,,0.00,VWS V13.01,2013-04-03 20:42:00,
2013-04-03 16:47:00,50.6,32.3,30.15,NNE,20,1.7,21.4,49,0.00,,,0.00,VWS V13.01,2013-04-03 20:47:00,
2013-04-03 16:52:00,49.7,31.3,30.15,North,10,10.1,21.4,49,0.00,,,0.00,VWS V13.01,2013-04-03 20:52:00,
2013-04-03 16:57:00,49.1,31.0,30.15,NNW,332,8.9,21.4,50,0.00,,,0.00,VWS V13.01,2013-04-03 20:57:00,
2013-04-03 17:02:00,48.8,30.8,30.15,NNW,339,6.1,21.4,50,0.00,,,0.00,VWS V13.01,2013-04-03 21:02:00,
2013-04-03 17:07:00,48.6,31.1,30.16,NW,318,13.3,21.4,51,0.00,,,0.00,VWS V13.01,2013-04-03 21:07:00,
2013-04-03 17:12:00,48.3,30.6,30.16,North,8,11.4,21.4,50,0.00,,,0.00,VWS V13.01,2013-04-03 21:12:00,
2013-04-03 17:17:00,48.3,30.8,30.16,NW,307,3.9,21.4,50,0.00,,,0.00,VWS V13.01,2013-04-03 21:17:00,
2013-04-03 17:22:00,48.0,30.9,30.16,NW,309,9.8,21.4,51,0.00,,,0.00,VWS V13.01,2013-04-03 21:22:00,
2013-04-03 17:27:00,48.5,32.5,30.16,West,264,11.8,21.4,54,0.00,,,0.00,VWS V13.01,2013-04-03 21:27:00,
2013-04-03 17:32:00,48.5,30.9,30.16,North,354,4.9,21.4,50,0.00,,,0.00,VWS V13.01,2013-04-03 21:32:00,
2013-04-03 17:37:00,47.9,30.4,30.16,WNW,298,4.5,21.4,50,0.00,,,0.00,VWS V13.01,2013-04-03 21:37:00,
2013-04-03 17:42:00,47.4,30.0,30.16,North,359,8.3,21.4,51,0.00,,,0.00,VWS V13.01,2013-04-03 21:42:00,
2013-04-03 17:47:00,47.2,29.9,30.17,NW,314,4.2,21.4,51,0.00,,,0.00,VWS V13.01,2013-04-03 21:47:00,
2013-04-03 17:52:00,47.4,30.2,30.17,NW,311,8.6,21.4,51,0.00,,,0.00,VWS V13.01,2013-04-03 21:52:00,
2013-04-03 17:57:00,47.2,29.9,30.18,North,6,8.5,21.4,51,0.00,,,0.00,VWS V13.01,2013-04-03 21:57:00,
2013-04-03 18:02:00,47.3,29.9,30.18,NNW,339,11.7,21.4,51,0.00,,,0.00,VWS V13.01,2013-04-03 22:02:00,
2013-04-03 18:07:00,47.3,29.8,30.18,NW,316,3.2,21.4,50,0.00,,,0.00,VWS V13.01,2013-04-03 22:07:00,
2013-04-03 18:12:00,47.1,29.6,30.19,NW,307,8.7,21.4,50,0.00,,,0.00,VWS V13.01,2013-04-03 22:12:00,
2013-04-03 18:17:00,46.9,29.6,30.20,NW,304,7.0,21.4,51,0.00,,,0.00,VWS V13.01,2013-04-03 22:17:00,
2013-04-03 18:22:00,46.7,29.5,30.20,NNW,342,5.6,21.4,51,0.00,,,0.00,VWS V13.01,2013-04-03 22:22:00,
2013-04-03 18:27:00,46.6,29.5,30.20,NNW,338,3.4,21.4,51,0.00,,,0.00,VWS V13.01,2013-04-03 22:27:00,
2013-04-03 18:32:00,46.6,29.3,30.20,NNW,330,4.3,21.4,51,0.00,,,0.00,VWS V13.01,2013-04-03 22:32:00,
2013-04-03 18:37:00,46.7,29.5,30.20,North,1,3.2,21.4,51,0.00,,,0.00,VWS V13.01,2013-04-03 22:37:00,
2013-04-03 18:42:00,46.5,29.2,30.20,WNW,298,9.1,21.4,51,0.00,,,0.00,VWS V13.01,2013-04-03 22:42:00,
2013-04-03 18:47:00,46.4,29.2,30.21,NNW,347,3.1,21.4,51,0.00,,,0.00,VWS V13.01,2013-04-03 22:47:00,
2013-04-03 18:52:00,46.7,29.5,30.21,NW,323,7.0,21.4,51,0.00,,,0.00,VWS V13.01,2013-04-03 22:52:00,
2013-04-03 18:57:00,46.8,29.5,30.22,NNW,338,5.1,21.4,51,0.00,,,0.00,VWS V13.01,2013-04-03 22:57:00,
2013-04-03 19:02:00,46.9,29.4,30.22,NNE,13,5.2,21.4,50,0.00,,,0.00,VWS V13.01,2013-04-03 23:02:00,
2013-04-03 19:07:00,47.0,29.8,30.22,North,353,2.7,21.4,51,0.00,,,0.00,VWS V13.01,2013-04-03 23:07:00,
2013-04-03 19:12:00,47.0,29.7,30.22,North,359,3.4,21.4,51,0.00,,,0.00,VWS V13.01,2013-04-03 23:12:00,
2013-04-03 19:17:00,46.9,29.5,30.23,NW,325,5.0,21.4,50,0.00,,,0.00,VWS V13.01,2013-04-03 23:17:00,
2013-04-03 19:22:00,46.8,29.5,30.23,NNW,347,5.8,21.4,51,0.00,,,0.00,VWS V13.01,2013-04-03 23:22:00,
2013-04-03 19:27:00,46.5,29.2,30.23,NNW,332,8.7,21.4,51,0.00,,,0.00,VWS V13.01,2013-04-03 23:27:00,
2013-04-03 19:32:00,46.2,28.9,30.23,NNW,333,3.7,21.4,51,0.00,,,0.00,VWS V13.01,2013-04-03 23:32:00,
2013-04-03 19:37:00,46.0,28.7,30.23,NW,321,7.4,21.4,50,0.00,,,0.00,VWS V13.01,2013-04-03 23:37:00,
2013-04-03 19:42:00,45.7,28.3,30.24,NW,326,6.9,21.4,50,0.00,,,0.00,VWS V13.01,2013-04-03 23:42:00,
2013-04-03 19:47:00,45.5,28.1,30.24,NW,326,6.1,21.4,50,0.00,,,0.00,VWS V13.01,2013-04-03 23:47:00,
2013-04-03 19:52:00,45.3,27.8,30.25,NW,316,9.6,21.4,50,0.00,,,0.00,VWS V13.01,2013-04-03 23:52:00,
2013-04-03 19:57:00,45.1,27.7,30.25,NW,318,3.6,21.4,50,0.00,,,0.00,VWS V13.01,2013-04-03 23:57:00,
2013-04-03 20:02:00,44.9,27.7,30.25,NW,315,2.9,21.4,51,0.00,,,0.00,VWS V13.01,2013-04-04 00:02:00,
2013-04-03 20:07:00,44.8,27.7,30.26,North,356,1.9,21.4,51,0.00,,,0.00,VWS V13.01,2013-04-04 00:07:00,
2013-04-03 20:12:00,44.8,28.1,30.25,NW,308,9.9,21.4,52,0.00,,,0.00,VWS V13.01,2013-04-04 00:12:00,
2013-04-03 20:17:00,44.4,27.6,30.26,NNW,332,6.0,21.4,51,0.00,,,0.00,VWS V13.01,2013-04-04 00:17:00,
2013-04-03 20:22:00,44.3,27.7,30.26,North,359,4.9,21.4,52,0.00,,,0.00,VWS V13.01,2013-04-04 00:22:00,
2013-04-03 20:27:00,44.2,27.7,30.26,NNW,328,3.6,21.4,52,0.00,,,0.00,VWS V13.01,2013-04-04 00:27:00,
2013-04-03 21:29:00,42.4,26.5,30.29,NW,321,5.1,21.4,53,0.00,,,0.00,VWS V13.01,2013-04-04 01:29:00,
2013-04-03 21:34:00,42.3,26.5,30.30,NNW,339,3.0,21.4,53,0.00,,,0.00,VWS V13.01,2013-04-04 01:34:00,
2013-04-03 21:39:00,42.2,26.7,30.29,North,0,0.0,21.4,54,0.00,,,0.00,VWS V13.01,2013-04-04 01:39:00,
2013-04-03 21:44:00,41.9,26.6,30.29,West,260,0.0,21.4,54,0.00,,,0.00,VWS V13.01,2013-04-04 01:44:00,
2013-04-03 21:49:00,41.8,26.7,30.29,NNW,332,4.2,21.4,55,0.00,,,0.00,VWS V13.01,2013-04-04 01:49:00,
2013-04-03 21:54:00,41.9,26.9,30.30,NNE,28,5.8,21.4,55,0.00,,,0.00,VWS V13.01,2013-04-04 01:54:00,
2013-04-03 21:59:00,41.5,26.5,30.30,North,359,6.2,21.4,55,0.00,,,0.00,VWS V13.01,2013-04-04 01:59:00,
2013-04-03 22:04:00,41.4,26.3,30.30,NW,309,14.2,21.4,55,0.00,,,0.00,VWS V13.01,2013-04-04 02:04:00,
2013-04-03 22:09:00,41.3,26.3,30.30,NNW,340,4.5,21.4,55,0.00,,,0.00,VWS V13.01,2013-04-04 02:09:00,
2013-04-03 22:14:00,41.1,26.2,30.30,NNW,332,6.2,21.4,55,0.00,,,0.00,VWS V13.01,2013-04-04 02:14:00,
2013-04-03 22:19:00,40.9,26.0,30.31,North,353,3.1,21.4,55,0.00,,,0.00,VWS V13.01,2013-04-04 02:19:00,
2013-04-03 22:24:00,40.7,25.9,30.31,North,353,4.3,21.4,55,0.00,,,0.00,VWS V13.01,2013-04-04 02:24:00,
2013-04-03 22:29:00,40.8,26.0,30.31,North,354,2.5,21.4,55,0.00,,,0.00,VWS V13.01,2013-04-04 02:29:00,
2013-04-03 22:34:00,40.6,26.0,30.31,NW,311,4.8,21.4,56,0.00,,,0.00,VWS V13.01,2013-04-04 02:34:00,
2013-04-03 22:39:00,40.6,26.1,30.31,North,359,4.8,21.4,56,0.00,,,0.00,VWS V13.01,2013-04-04 02:39:00,
2013-04-03 22:44:00,40.4,26.0,30.31,NNW,339,3.7,21.4,56,0.00,,,0.00,VWS V13.01,2013-04-04 02:44:00,
2013-04-03 22:49:00,40.1,25.9,30.31,NNW,339,7.4,21.4,56,0.00,,,0.00,VWS V13.01,2013-04-04 02:49:00,
2013-04-03 22:54:00,40.0,25.8,30.31,North,352,3.0,21.4,56,0.00,,,0.00,VWS V13.01,2013-04-04 02:54:00,
2013-04-03 22:59:00,39.9,25.9,30.31,NNW,346,4.5,21.4,57,0.00,,,0.00,VWS V13.01,2013-04-04 02:59:00,
2013-04-03 23:04:00,39.8,25.9,30.32,North,353,3.9,21.4,57,0.00,,,0.00,VWS V13.01,2013-04-04 03:04:00,
2013-04-03 23:09:00,39.7,25.8,30.32,NW,325,5.5,21.4,57,0.00,,,0.00,VWS V13.01,2013-04-04 03:09:00,
2013-04-03 23:14:00,39.8,26.0,30.32,WNW,294,1.4,21.4,57,0.00,,,0.00,VWS V13.01,2013-04-04 03:14:00,
2013-04-03 23:19:00,39.6,25.9,30.32,North,354,5.2,21.4,58,0.00,,,0.00,VWS V13.01,2013-04-04 03:19:00,
2013-04-03 23:24:00,39.5,25.8,30.32,NNE,22,2.4,21.4,58,0.00,,,0.00,VWS V13.01,2013-04-04 03:24:00,
2013-04-03 23:29:00,39.4,25.9,30.32,NW,326,0.0,21.4,58,0.00,,,0.00,VWS V13.01,2013-04-04 03:29:00,
2013-04-03 23:34:00,39.4,26.0,30.32,North,3,0.0,21.4,58,0.00,,,0.00,VWS V13.01,2013-04-04 03:34:00,
2013-04-03 23:39:00,39.0,25.9,30.32,North,7,2.9,21.4,59,0.00,,,0.00,VWS V13.01,2013-04-04 03:39:00,
2013-04-03 23:45:00,39.1,26.2,30.32,North,8,5.5,21.4,59,0.00,,,0.00,VWS V13.01,2013-04-04 03:45:00,
2013-04-03 23:50:00,39.0,26.1,30.32,North,359,2.9,21.4,60,0.00,,,0.00,VWS V13.01,2013-04-04 03:50:00,
2013-04-03 23:55:00,39.0,26.1,30.31,North,10,4.3,21.4,60,0.00,,,0.00,VWS V13.01,2013-04-04 03:55:00,